Strona główna
METAR-TAF:

METAR-TAF

Lotnisko :

Orange Municipal Airport

Orange, Massachusetts, Stany Zjednoczone

Szerokość geograficzna: 42-34-18N, Długość geograficzna: 072-16-39W, wysokość: 169 m

Aktualna obserwacja pogody

Raport powstał 53 minut temu, godzina 16:52 UTC
Wiatr 15 kt od południe w porywach dochodzący do 24 kt
Temperatura 1°C
Wilgotność 47%
Ciśnienie 1022 hPa
Widzialność: 16.1 km

METAR: KORE 231652Z AUTO 19015G24KT 10SM 01/M09 A3017 RMK AO2 UPB16E29 PRESFR SLP226 P0000 T00061094 $

czas: 12:45 (17:45 UTC)


TAF: brakujący

Obserwacja i prognoza pogody dla ponad 4000 lotnisk (raport METAR i TAF).

Dostępne stacje oznaczono żółtymi i czerwonymi punktami na mapie.

Najedź kursorem aby zobaczyć nazwę stacji.

Kliknij aby zobaczyć obserwacje i prognozy pogody.

Aby zmienić mapę: kliknij na zielony przycisk z czarnym krzyżykiem, aby powiększyć; na zielony przycisk z myślnikiem, aby pomniejszyć; na zielone strzałki, aby przejść do map sąsiednich.


METAR-TAF: